DENVH LSGS-LIMB

Flight info

Callsign DENVH
Flight time N/A
Altitude 10000
Route ECHO/SEMPIONPASS/SRN
Aircraft C182/L-SGYL/C

Departure

Time 2026-05-08 14:24
Airport Sion Airport (LSGS)

Arrival

Time N/A
Airport Milano-Bresso Airfield (LIMB)
Time Latitude Longitude Altitude Speed Heading
2026-05-08 14:17 46.22179 7.33461 1583 ft 0 kts 186°
2026-05-08 14:18 46.22182 7.33471 1583 ft 4 kts 10°
2026-05-08 14:19 46.22177 7.33439 1583 ft 1 kts 207°
2026-05-08 14:19 46.22175 7.33439 1583 ft 0 kts 193°
2026-05-08 14:21 46.22164 7.33438 1583 ft 6 kts 168°
2026-05-08 14:21 46.22094 7.33424 1583 ft 15 kts 230°
2026-05-08 14:21 46.22054 7.33253 1583 ft 20 kts 258°
2026-05-08 14:22 46.22025 7.33077 1583 ft 18 kts 251°
2026-05-08 14:22 46.22011 7.33057 1583 ft 0 kts 68°
2026-05-08 14:22 46.22011 7.33058 1583 ft 0 kts 70°
2026-05-08 14:23 46.22028 7.33142 1583 ft 30 kts 65°
2026-05-08 14:23 46.22151 7.33679 1593 ft 78 kts 73°
2026-05-08 14:23 46.22328 7.34473 1797 ft 87 kts 72°
2026-05-08 14:23 46.22530 7.35320 2040 ft 94 kts 70°
2026-05-08 14:24 46.22769 7.36172 2397 ft 88 kts 66°
2026-05-08 14:24 46.23015 7.36988 2710 ft 90 kts 69°
2026-05-08 14:24 46.23334 7.37749 2993 ft 90 kts 32°
2026-05-08 14:24 46.23648 7.38440 3315 ft 84 kts 79°
2026-05-08 14:25 46.23844 7.39211 3635 ft 77 kts 71°
2026-05-08 14:25 46.23997 7.39870 3919 ft 61 kts 71°
2026-05-08 14:25 46.24125 7.40449 4054 ft 61 kts 71°
2026-05-08 14:25 46.24254 7.41054 4159 ft 68 kts 71°
2026-05-08 14:26 46.24415 7.41759 4261 ft 80 kts 71°
2026-05-08 14:26 46.24606 7.42591 4383 ft 94 kts 72°
2026-05-08 14:26 46.24829 7.43532 4528 ft 101 kts 71°
2026-05-08 14:26 46.25065 7.44477 4696 ft 99 kts 67°
2026-05-08 14:27 46.25349 7.45401 4845 ft 104 kts 66°
2026-05-08 14:27 46.25633 7.46361 5013 ft 104 kts 66°
2026-05-08 14:27 46.25916 7.47306 5200 ft 101 kts 66°
2026-05-08 14:27 46.26197 7.48216 5385 ft 99 kts 66°
2026-05-08 14:28 46.26476 7.49125 5588 ft 99 kts 66°
2026-05-08 14:28 46.26758 7.50032 5795 ft 98 kts 66°
2026-05-08 14:28 46.27034 7.50936 6061 ft 98 kts 65°
2026-05-08 14:28 46.27303 7.51838 6279 ft 97 kts 66°
2026-05-08 14:29 46.27561 7.52717 6483 ft 95 kts 66°
2026-05-08 14:29 46.27814 7.53601 6685 ft 95 kts 66°
2026-05-08 14:29 46.28067 7.54479 6873 ft 93 kts 65°
2026-05-08 14:29 46.28318 7.55342 7063 ft 93 kts 66°
2026-05-08 14:30 46.28569 7.56183 7250 ft 89 kts 65°
2026-05-08 14:30 46.28783 7.57009 7432 ft 87 kts 73°
2026-05-08 14:30 46.28958 7.57819 7614 ft 82 kts 71°
2026-05-08 14:30 46.29120 7.58563 7788 ft 76 kts 71°
2026-05-08 14:31 46.29271 7.59264 7956 ft 69 kts 71°
2026-05-08 14:31 46.29402 7.59894 8023 ft 65 kts 72°
2026-05-08 14:31 46.29525 7.60502 8104 ft 56 kts 71°
2026-05-08 14:32 46.29722 7.61492 8123 ft 72 kts 71°